Regional Weather Roundup
Issued by NWS

Home | Current Version | Previous Version | Graphics & Text | Print | Product List | Glossary On
Versions: 1 2 3 4 5 6 7 8 9 10 11 12 13 14 15 16 17 18 19 20 21 22 23 24 25 26 27 28 29 30 31 32 33 34 35 36 37 38 39 40 41 42 43 44 45 46 47 48 49 50
000
ASUS45 KBOU 010007
RWRCO

WEATHER ROUNDUP FOR COLORADO
NATIONAL WEATHER SERVICE DENVER/BOULDER CO
600 PM MDT THU JUL 31 2014

NOTE: "FAIR" INDICATES FEW OR NO CLOUDS BELOW 12000 FEET WITH NO
SIGNIFICANT WEATHER AND/OR OBSTRUCTIONS TO VISIBILITY.

COZ001>005-013-030-031-010100-
...NORTHWEST COLORADO...

CITY           SKY/WX    TMP DP  RH WIND       PRES   REMARKS
CRAIG          MOSUNNY   68  48  48 NE6       30.20F
HAYDEN         MOSUNNY   73  48  40 E12       30.23F
MEEKER         SUNNY     79  46  31 NW9       30.21F
MOUNT WERNER   NOT AVBL
STEAMBOAT SPGS MOSUNNY   71  46  41 E9        30.26S
WALDEN         MOSUNNY   70  37  30 E12G17    30.35F
$$

COZ006>008-011-010100-
...WEST CENTRAL VALLEYS...

CITY           SKY/WX    TMP DP  RH WIND       PRES   REMARKS
GRAND JUNCTION MOSUNNY   86  48  26 W15       30.07S
MONTROSE       MOSUNNY   83  51  33 W5        30.16S
EAGLE          PTSUNNY   73  54  49 CALM      30.25F
RIFLE          MOSUNNY   85  46  25 W12       30.11S
DELTA          MOSUNNY   89  39  17 W18       30.08S
NUCLA          MOSUNNY   82  45  26 NW7       30.19S
$$

COZ017>023-064>068-010100-
...SOUTHWEST COLORADO...

CITY           SKY/WX    TMP DP  RH WIND       PRES   REMARKS
DURANGO        PTSUNNY   77  48  35 CALM      30.22S
CORTEZ         MOSUNNY   84  46  26 N12       30.15S
PAGOSA SPRINGS PTSUNNY   67  51  57 CALM      30.32R
TELLURIDE      NOT AVBL
WOLF CREEK PAS NOT AVBL
$$

COZ009-010-012-014-032>034-037-058>063-010100-
...CENTRAL COLORADO...

CITY           SKY/WX    TMP DP  RH WIND       PRES   REMARKS
ASPEN          PTSUNNY   69  47  45 N12G20    30.29S
BUENA VISTA    TSTM      54  51  90 SE9       30.42R
COPPER MTN     PTSUNNY   54  45  71 W5        30.64S
BERTHOUD PASS  FOG       37  37 100 SE13      30.68S VSB 3/4
COTTONWOOD PAS TSTM      52  48  87 SE13      30.52R VSB 1/4
GUNNISON       MOSUNNY   73  43  33 N10G16    30.30F
KREMMLING      MOSUNNY   73  43  33 E3        30.31F
LEADVILLE      PTSUNNY   51  46  83 W3          N/A
SALIDA         CLOUDY    61  55  81 E10G16    30.44F
SUNLIGHT       LGT RAIN  55  50  82 CALM      30.55S
WILKERSON PASS LGT RAIN  45  45 100 E3        30.63F VSB 3/4
$$

COZ069>075-010100-
...SAN LUIS VALLEY/SANGRE DE CRISTO MOUNTAINS...

CITY           SKY/WX    TMP DP  RH WIND       PRES   REMARKS
ALAMOSA        CLOUDY    63  53  70 SE8       30.32R
LA VETA PASS   RAIN      46  46 100 NE10      30.53F VSB 1/4
SAGUACHE       PTSUNNY   64  50  59 SE16      30.35S
$$

COZ035-036-038>040-010100-
...NORTHERN COLORADO FRONT RANGE...

CITY           SKY/WX    TMP DP  RH WIND       PRES   REMARKS
DENVER INTL AP PTSUNNY   75  46  35 VRB3      30.25S
DMNS CITY PARK   N/A     77  49  36 NE3       30.24F
AURORA         PTSUNNY   71  51  49 CALM      30.28S
FRONT RANGE AP PTSUNNY   77  46  33 NE9       30.26
ERIE MUNI ARPT MOSUNNY   77  45  32 E7        30.23F
BOULDER MUN AP MOSUNNY   77  45  31 CALM      30.24S
CENTENNIAL     PTSUNNY   71  50  47 VRB5      30.28S
BROOMFIELD     PTSUNNY   75  43  31 VRB3      30.27F
FORT COLLINS   SUNNY     77  45  31 CALM      30.20F
LONGMONT       SUNNY     81  46  29 CALM      30.24F
$$

COZ041-046-047-076>085-087-088-010100-
...PIKES PEAK/PALMER DIVIDE AND SOUTHERN FOOTHILLS...

CITY           SKY/WX    TMP DP  RH WIND       PRES   REMARKS
COLO. SPRINGS  CLOUDY    66  54  65 S5        30.32F
A. F. ACADEMY  MOSUNNY   63  54  71 E2        30.33F
ELLICOTT       CLOUDY    66  51  58 SW8       30.30F
FALCON         CLOUDY    62  54  73 S5        30.36F
FORT CARSON    CLOUDY    66  56  70 VRB2      30.29F
LIMON          MOSUNNY   73  47  39 SW6       30.25F
MONUMENT HILL  PTSUNNY   63  46  55 E5        30.35F
TRINIDAD       CLOUDY    69  52  54 N5        30.29F
$$

COZ042>045-048>051-090-091-010100-
...NORTHEAST COLORADO...

CITY           SKY/WX    TMP DP  RH WIND       PRES   REMARKS
GREELEY ARPT   NOT AVBL
AKRON          MOSUNNY   79  43  27 CALM      30.19F
BURLINGTON     SUNNY     76  48  37 S7        30.18S
WRAY             N/A     85  44  23 N3        30.13F
STERLING       SUNNY     84  54  34 S6        30.14F
HOLYOKE        SUNNY     86  48  26 W6        30.12S
FORT MORGAN    SUNNY     80  44  27 SE7       30.19F
$$

COZ086-089-092>099-010100-
...SOUTHEAST COLORADO...

CITY           SKY/WX    TMP DP  RH WIND       PRES   REMARKS
PUEBLO         CLOUDY    74  52  46 CALM      30.23F
LA JUNTA       PTSUNNY   75  50  41 CALM      30.21S
LAMAR          MOSUNNY   77  52  41 NE5       30.16F
SPRINGFIELD      N/A     74  50  42 N7        30.20S
$$



USA.gov is the U.S. government's official web portal to all federal, state and local government web resources and services.